Probability
4 3 2 1 0 0 0 0 0 0 0 0 0 0 0 0 0 0 0 0 0 0 0 0 0 0 0 0 0 0 0 0 0 0 0 0 0 0 0 0 0 0 0
2 1 1 0 0 0 0 0 0 0 0 0 0 0 0 0 0 0 0 0 0 0 0 0 0 0 0 0 0 0 0 0 0 0 0 0 0 0 0 0 0 0 0
1 0 0 0 0 0 0 0 0 0 0 0 0 0 0 0 0 0 0 0 0 0 0 0 0 0 0 0 0 0 0 0 0 0 0 0 0 0 0 0 0 0 0
1 0 0 0 0 0 0 0 0 0 0 0 0 0 0 0 0 0 0 0 0 0 0 0 0 0 0 0 0 0 0 0 0 0 0 0 0 0 0 0 0 0 0
0 0 0 0 0 0 0 0 0 0 0 0 0 0 0 0 0 0 0 0 0 0 0 0 0 0 0 0 0 0 0 0 0 0 0 0 0 0 0 0 0 0 0
0 0 0 0 0 0 0 0 0 0 0 0 0 0 0 0 0 0 0 0 0 0 0 0 0 0 0 0 0 0 0 0 0 0 0 0 0 0 0 0 0 0 0
0 0 0 0 0 0 0 0 0 0 0 0 0 0 0 0 0 0 0 0 0 0 0 0 0 0 0 0 0 0 0 0 0 0 0 0 0 0 0 0 0 0 0
0 0 0 0 0 0 0 0 0 0 0 0 0 0 0 0 0 0 0 0 0 0 0 0 0 0 0 0 0 0 0 0 0 0 0 0 0 0 0 0 0 0 0
0 0 0 0 0 0 0 0 0 0 0 0 0 0 0 0 0 0 0 0 0 0 0 0 0 0 0 0 0 0 0 0 0 0 0 0 0 0 0 0 0 0 0
0 0 0 0 0 0 0 0 0 0 0 0 0 0 0 0 0 0 0 0 0 0 0 0 0 0 0 0 0 0 0 0 0 0 0 0 0 0 0 0 0 0 0
0 0 0 0 0 0 0 0 0 0 0 0 0 0 0 0 0 0 0 0 0 0 0 0 0 0 0 0 0 0 0 0 0 0 0 0 0 0 0 0 0 0 0
0 0 0 0 0 0 0 0 0 0 0 0 0 0 0 0 0 0 0 0 0 0 0 0 0 0 0 0 0 0 0 0 0 0 0 0 0 0 0 0 0 0 0
0 0 0 0 0 0 0 0 0 0 0 0 0 0 0 0 0 0 0 0 0 0 0 0 0 0 0 0 0 0 0 0 0 0 0 0 0 0 0 0 0 0 0
0 0 0 0 0 0 0 0 0 0 0 0 0 0 0 0 0 0 0 0 0 0 0 0 0 0 0 0 0 0 0 0 0 0 0 0 0 0 0 0 0 0 0
0 0 0 0 0 0 0 0 0 0 0 0 0 0 0 0 0 0 0 0 0 0 0 0 0 0 0 0 0 0 0 0 0 0 0 0 0 0 0 0 0 0 0
0 0 0 0 0 0 0 0 0 0 0 0 0 0 0 0 0 0 0 0 0 0 0 0 0 0 0 0 0 0 0 0 0 0 0 0 0 0 0 0 0 0 0
0 0 0 0 0 0 0 0 0 0 0 0 0 0 0 0 0 0 0 0 0 0 0 0 0 0 0 0 0 0 0 0 0 0 0 0 0 0 0 0 0 0 0
0 0 0 0 0 0 0 0 0 0 0 0 0 0 0 0 0 0 0 0 0 0 0 0 0 0 0 0 0 0 0 0 0 0 0 0 0 0 0 0 0 0 0
0 0 0 0 0 0 0 0 0 0 0 0 0 0 0 0 0 0 0 0 0 0 0 0 0 0 0 0 0 0 0 0 0 0 0 0 0 0 0 0 0 0 0
0 0 0 0 0 0 0 0 0 0 0 0 0 0 0 0 0 0 0 0 0 0 0 0 0 0 0 0 0 0 0 0 0 0 0 0 0 0 0 0 0 0 0
0 0 0 0 0 0 0 0 0 0 0 0 0 0 0 0 0 0 0 0 0 0 0 0 0 0 0 0 0 0 0 0 0 0 0 0 0 0 0 0 0 0 0
0 0 0 0 0 0 0 0 0 0 0 0 0 0 0 0 0 0 0 0 0 0 0 0 0 0 0 0 0 0 0 0 0 0 0 0 0 0 0 0 0 0 0
0 0 0 0 0 0 0 0 0 0 0 0 0 0 0 0 0 0 0 0 0 0 0 0 0 0 0 0 0 0 0 0 0 0 0 0 0 0 0 0 0 0 0
0 0 0 0 0 0 0 0 0 0 0 0 0 0 0 0 0 0 0 0 0 0 0 0 0 0 0 0 0 0 0 0 0 0 0 0 0 0 0 0 0 0 0
0 0 0 0 0 0 0 0 0 0 0 0 0 0 0 0 0 0 0 0 0 0 0 0 0 0 0 0 0 0 0 0 0 0 0 0 0 0 0 0 0 0 0
0 0 0 0 0 0 0 0 0 0 0 0 0 0 0 0 0 0 0 0 0 0 0 0 0 0 0 0 0 0 0 0 0 0 0 0 0 0 0 0 0 0 0
Wind_Speed
5 5 4 3 3 2 1 1 1 1 2 2 2 2 3 3 3 3 3 3 3 3 3 2 2 1 1 1 1 0 0 1 2 1 1 1 1 1 2 1 1 1 1
5 5 4 3 3 2 1 1 1 1 1 2 2 2 3 3 3 3 2 3 2 2 3 2 2 2 2 1 1 1 0 0 2 1 1 1 1 2 1 1 1 1 1
5 5 4 3 2 2 1 1 1 1 2 2 2 2 2 2 3 3 2 2 2 2 2 2 2 2 2 1 1 1 0 0 1 2 1 1 1 1 1 1 1 1 1
5 5 4 3 2 2 1 1 1 1 1 1 2 1 1 2 2 3 3 3 3 3 2 2 1 1 1 1 1 0 0 0 0 1 1 1 1 1 0 1 1 1 1
5 4 3 2 2 2 1 1 1 1 1 1 2 2 2 2 2 2 3 3 3 3 3 2 2 2 1 1 1 1 0 0 0 0 0 0 1 1 1 1 1 1 1
5 4 3 2 2 2 1 1 1 1 2 2 2 1 2 2 3 3 2 2 2 2 2 3 2 3 4 4 2 1 2 2 1 1 1 2 2 2 1 1 1 0 1
5 4 3 3 2 1 1 2 1 1 1 2 1 1 2 2 3 4 3 2 2 1 2 2 2 3 3 2 3 3 2 2 3 3 3 3 3 3 2 1 2 2 2
4 4 3 3 3 2 1 1 0 0 0 0 1 1 1 3 4 4 4 2 2 2 2 1 1 2 3 2 2 2 3 2 3 2 4 4 4 4 4 3 2 1 2
4 4 3 3 2 2 1 1 1 0 0 1 1 1 1 3 4 4 3 1 2 3 3 2 1 2 3 2 1 2 3 4 3 2 3 4 5 5 4 2 1 1 1
4 4 3 3 3 2 2 1 1 1 1 1 2 2 2 3 4 4 2 1 1 2 3 3 3 3 3 2 1 1 2 3 4 5 4 3 2 2 3 4 4 3 1
4 3 3 3 3 3 2 1 1 1 1 1 2 3 2 3 3 4 3 1 0 1 2 3 3 4 4 4 1 1 3 3 2 2 3 3 2 2 1 2 3 3 3
3 3 2 2 2 2 2 1 1 1 0 2 2 3 3 3 3 3 3 1 0 0 2 3 3 5 5 5 3 3 4 2 1 1 2 2 2 2 2 2 3 4 4
3 3 2 1 1 1 2 1 1 0 1 2 2 2 3 3 3 4 4 3 2 1 2 4 5 7 7 4 5 5 3 1 0 1 2 2 2 2 2 2 2 2 3
4 2 2 1 1 1 1 1 1 2 1 2 2 2 3 3 3 2 2 2 3 2 3 4 5 6 4 4 4 3 2 2 2 2 2 2 2 2 1 1 1 1 2
3 2 1 1 1 1 1 2 3 4 5 4 4 3 3 3 5 4 2 2 1 2 2 2 2 3 3 3 3 3 2 1 1 2 2 2 2 2 3 2 1 1 1
3 2 2 1 1 1 1 2 4 5 7 8 8 6 5 7 7 6 5 4 4 2 1 2 3 3 3 3 3 3 3 3 3 2 2 2 3 3 3 2 2 2 3
4 3 2 2 2 2 2 2 3 5 6 7 8 9 8 8 8 7 6 4 4 2 1 3 3 4 4 4 3 3 3 4 3 3 3 3 3 3 3 3 3 2 3
3 3 3 3 3 3 3 3 3 3 4 5 6 8 9 9 9 8 5 1 3 2 3 4 5 5 4 4 4 4 4 4 3 3 4 4 3 3 3 4 3 4 4
3 3 3 3 3 3 3 3 3 4 4 4 4 5 7 7 7 7 4 3 4 5 4 5 5 5 5 5 5 4 4 4 4 3 3 4 4 3 4 4 4 5 4
3 5 4 3 3 3 3 3 4 4 4 4 4 5 3 1 2 3 3 4 5 6 6 6 6 6 5 5 5 4 4 4 4 4 4 4 4 3 4 5 4 4 4
3 4 6 4 3 4 4 4 5 4 5 5 6 6 6 4 5 5 5 5 6 6 6 6 6 6 6 5 5 5 6 5 5 4 4 5 4 4 4 4 4 4 4
3 3 3 4 4 4 5 5 5 5 5 6 6 6 7 5 5 5 5 6 6 6 6 6 6 6 6 6 5 5 5 6 5 5 5 5 5 4 4 4 4 4 5
3 4 4 4 4 5 5 5 4 5 5 5 5 5 4 5 6 6 7 6 6 6 6 6 6 6 6 6 6 6 6 7 6 6 6 5 5 5 5 5 6 5 5
3 4 4 4 4 4 4 5 5 5 6 6 5 5 5 6 6 7 7 6 6 6 6 5 6 8 10 7 6 5 6 7 6 6 7 6 6 5 5 5 5 6 6
3 4 4 4 4 5 5 5 5 5 5 5 6 6 6 6 6 7 7 6 7 7 7 7 6 7 9 11 9 7 7 8 8 6 5 5 6 6 6 6 6 6 6
4 4 4 4 4 4 5 5 5 6 5 6 6 6 6 6 6 7 6 6 6 6 7 6 7 8 9 8 9 9 8 8 8 8 5 5 6 6 6 6 7 7 7
Wind_Direction
121 118 115 110 103 103 97 84 63 6 356 357 353 359 7 10 7 13 3 6 12 358 352 13 3 5 14 5 19 24 78 157 188 266 280 286 296 279 309 319 291 263 256
134 130 130 125 114 104 86 46 43 18 354 2 15 20 18 19 17 17 7 10 13 4 356 14 356 11 13 359 20 17 352 187 167 193 282 290 273 258 271 286 287 254 245
136 135 132 127 124 123 97 43 27 26 18 22 40 43 28 18 13 8 8 5 7 2 358 11 353 25 7 353 19 28 3 0 149 170 242 275 288 270 311 303 303 306 260
138 139 141 152 156 144 124 79 43 39 40 21 28 33 24 12 14 13 17 17 10 8 6 4 356 20 344 326 2 338 358 27 112 163 221 273 290 281 224 275 311 305 286
143 144 161 160 141 124 113 93 49 32 40 39 45 25 10 15 19 16 6 10 6 2 360 0 358 353 338 301 249 233 172 160 178 181 232 296 289 260 242 242 246 300 307
150 157 156 144 138 130 125 97 52 33 28 43 43 29 15 11 14 19 15 357 352 356 347 345 346 355 353 352 338 295 217 193 206 205 217 232 248 234 227 214 189 36 294
152 155 149 148 139 131 111 93 68 25 41 48 21 23 7 340 354 5 8 9 357 337 318 328 342 349 353 351 344 340 322 263 220 198 213 235 229 220 195 211 210 210 233
153 155 151 148 142 135 113 106 343 351 30 338 314 312 326 326 345 358 0 14 3 344 332 313 327 330 334 342 342 341 330 315 269 231 225 239 234 220 198 196 196 222 289
156 159 156 151 156 159 163 225 226 158 289 269 280 285 304 313 330 340 351 12 8 347 340 342 349 337 327 347 11 350 341 331 332 305 272 259 248 236 200 154 151 119 330
168 168 167 163 168 180 200 216 223 195 238 261 284 283 284 296 316 336 351 39 2 334 335 334 333 329 325 342 23 8 339 317 331 341 345 337 304 261 215 183 178 165 181
168 163 167 173 183 195 204 217 210 225 289 301 297 299 296 292 314 336 354 78 254 307 319 318 316 320 323 326 320 243 262 281 310 328 333 330 332 322 281 198 189 179 185
155 158 173 189 205 184 180 234 233 190 272 292 303 310 305 301 305 317 341 342 253 182 284 290 298 313 315 317 312 292 292 303 322 341 343 321 310 299 285 253 216 215 218
146 155 178 197 220 196 179 207 246 255 234 269 274 283 294 302 308 316 322 318 308 229 266 277 294 309 317 313 300 297 305 307 342 332 299 284 268 265 282 298 288 254 257
155 175 192 181 264 284 236 209 213 231 236 257 262 262 277 287 291 306 316 318 321 312 307 308 309 308 306 297 298 301 287 241 211 234 258 271 289 301 291 273 282 304 318
170 189 199 208 218 267 273 243 231 235 220 217 232 224 222 257 262 251 239 267 277 291 316 333 339 336 330 315 307 295 287 285 262 253 251 269 281 284 280 270 258 255 247
175 197 211 227 242 240 260 304 296 264 265 247 235 226 235 239 252 261 262 267 279 295 11 313 302 299 292 290 288 288 282 267 256 249 249 250 253 256 268 277 262 249 258
188 207 217 227 237 241 238 242 287 305 296 275 259 251 245 249 251 256 262 278 287 256 238 270 273 276 276 274 266 256 258 258 252 248 247 248 248 250 250 262 266 262 262
199 216 220 228 233 238 239 241 242 256 284 295 281 259 254 252 252 253 253 274 291 260 239 256 265 266 261 259 258 254 256 260 251 248 250 250 246 244 252 258 258 254 260
206 222 229 235 237 241 242 245 250 253 257 268 286 286 265 258 262 261 225 211 244 257 253 252 255 257 255 252 251 249 248 252 254 250 250 247 241 232 245 253 256 264 259
227 238 235 237 247 250 247 246 252 256 259 260 262 264 267 253 261 260 227 227 239 250 252 252 255 255 252 251 251 252 250 251 253 249 248 249 245 237 243 252 254 257 255
228 243 245 246 245 247 249 247 247 249 252 256 258 257 241 230 244 250 245 239 238 243 246 246 248 251 249 247 245 246 244 245 244 240 243 247 244 243 246 246 250 253 258
229 240 241 243 248 251 253 250 247 247 250 255 263 270 253 242 246 250 253 254 246 241 239 238 245 246 242 239 237 236 240 244 243 238 238 242 242 243 246 246 250 253 255
231 244 251 253 251 258 262 259 254 251 253 256 258 259 253 243 250 252 253 255 253 248 243 237 243 250 249 243 234 228 232 238 237 230 229 236 240 242 240 243 248 252 254
238 245 250 257 260 259 259 261 260 257 255 255 254 252 249 247 248 251 253 255 255 253 249 242 242 246 250 252 247 239 236 238 237 233 227 230 235 240 242 245 248 250 253
242 250 252 251 254 256 258 260 261 260 260 256 253 251 251 250 252 255 255 255 257 259 258 251 248 249 251 251 249 247 246 242 242 241 233 231 237 240 242 248 251 254 255
249 255 258 255 253 254 255 257 261 261 260 259 255 249 248 249 252 256 257 256 256 257 259 257 251 249 250 251 251 250 248 247 248 245 236 233 239 245 244 249 254 256 259